sat.trackr.live / text

‹ back to catalog

GRUS-1E

NORAD 47935 · 2021-022D

PAYLOAD ACTIVE UNKNOWN

§ Identity

Operator
Country
JPN
Launch date
2021-03-22
Launch site
TYMSC
Launch vehicle
Mass (kg)
RCS (m²)

External: N2YO · Heavens-Above · Gunter

§ Orbital elements

Epoch: 2026-05-25T04:14:52.463040Z

Period
96.04 min
Inclination
97.5467°
Eccentricity
0.0014417
Mean motion
14.99310746 rev/d
Perigee alt
559.0 km
Apogee alt
579.0 km
Semi-major
6,947.2 km
B*
1.0994e-4
RAAN
30.3187°
Arg perigee
46.4093°
Mean anomaly
313.8324°
Rev number
28,250

§ Raw data

GRUS-1E1 47935U 21022D   26145.17699610  .00001288  00000+0  10994-3 0  99962 47935  97.5467  30.3187 0014417  46.4093 313.8324 14.99310746282508

JSON: /api/v1/satellites/47935 · /tle

For live sub-satellite position, see the globe view (requires WebGL).

§ Visibility from observer

Set your observer location to see the next 7 days of passes ≥ 10°. The values pass through the URL so the page stays shareable.

No JS? Fill the form by hand. The geolocation button needs JavaScript.

§ Radio — SatNOGS DB

ModeDescriptionDownlinkUplink
FM S-band telemetry 2.276 GHz

1 transmitter · refreshed weekly from db.satnogs.org